2020-102E

Last updated on Fri Jan 22 2021 00:02:02 GMT+0000 (Coordinated Universal Time)

1 47300U 20102E 21021.79174554 .00001407 00000-0 67495-4 0 9994 2 47300 97.4345 121.7639 0005260 28.1815 88.0392 15.20520608 4648
UTC large
Height (km)
Speed (km/s)
/
Latitude / Longitude
Inclination (degrees)
Orbital Period (minutes)
Azimuth
Elevation
Range (km)
Doppler Factor

Next 0 passes for location: London (51.5072 / 0.1276)

Sorry there are no passes over London.